Location: Maynard F. Jordan Observatory
(44.9000°N, 68.6700°W)
Time: 07:06:37
(UTC-04:00)

Cosmos 2297 Rocket - Visible Passes

Search period start: 30 July 2014 00:00
Search period end: 09 August 2014 00:00
Orbit: 841 x 843 km, 71.0° (Epoch: 30 July)

Date Brightness Start Highest point End Pass type
(mag) Time Alt. Az. Time Alt. Az. Time Alt. Az.
30 Jul 4.5 00:00:00 22° N 23:59:45 23° N 00:01:57 10° NNE visible
30 Jul 4.8 01:40:19 10° NW 01:41:57 11° NW 01:43:36 10° NNW visible
30 Jul 3.2 21:56:53 24° ESE 21:57:45 25° ESE 22:02:15 10° NE visible
30 Jul 2.8 23:38:38 28° WSW 23:41:26 52° WNW 23:46:58 10° NNE visible
31 Jul 4.8 01:24:59 10° WNW 01:26:54 12° NW 01:28:49 10° NNW visible
31 Jul 3.3 21:41:25 22° ESE 21:42:47 24° ESE 21:47:11 10° NE visible
31 Jul 2.8 23:23:10 24° SW 23:26:25 55° WNW 23:31:59 10° NNE visible
01 Aug 4.9 01:09:41 10° WNW 01:11:50 12° NW 01:13:59 10° NNW visible
01 Aug 3.4 21:25:47 19° SE 21:27:49 23° E 21:32:06 10° NE visible
01 Aug 2.7 23:07:31 20° SW 23:11:25 58° WNW 23:17:00 10° NNE visible
02 Aug 4.9 00:54:25 10° WNW 00:56:46 13° NW 00:59:08 10° NNW visible
02 Aug 3.4 21:09:53 15° SE 21:12:51 22° E 21:17:01 10° NE visible
02 Aug 2.6 22:51:36 14° SW 22:56:24 60° WNW 23:02:01 10° NNE visible
03 Aug 4.9 00:39:10 10° WNW 00:41:43 13° NW 00:44:16 10° NNW visible
03 Aug 3.4 20:53:52 10° SE 20:57:53 20° E 21:01:55 10° NE visible
03 Aug 2.6 22:35:49 10° SW 22:41:24 63° WNW 22:47:01 10° NNE visible
04 Aug 4.9 00:23:55 10° WNW 00:26:39 14° NW 00:29:24 10° N visible
04 Aug 3.5 20:39:02 10° SE 20:42:55 19° E 20:46:49 10° NE visible
04 Aug 2.5 22:20:47 10° SW 22:26:23 66° WNW 22:32:02 10° NNE visible
05 Aug 4.9 00:08:42 10° WNW 00:11:36 14° NW 00:14:30 10° N visible
05 Aug 3.5 20:24:13 10° SE 20:27:57 18° E 20:31:42 10° ENE visible
05 Aug 2.5 22:05:46 10° SW 22:11:23 69° WNW 22:17:03 10° NNE visible
05 Aug 4.9 23:53:30 10° WNW 23:56:33 15° NW 23:59:36 10° N visible
06 Aug 2.4 21:50:45 10° SSW 21:56:23 73° WNW 22:02:03 10° NNE visible
06 Aug 5.0 23:38:18 10° WNW 23:41:30 15° NW 23:44:42 10° N visible
07 Aug 2.4 21:35:44 10° SSW 21:41:23 76° WNW 21:47:03 10° NNE visible
07 Aug 5.0 23:23:06 10° WNW 23:26:26 16° NW 23:29:47 10° N visible
08 Aug 5.2 04:45:08 10° N 04:48:21 15° NE 04:51:34 10° ENE visible
08 Aug 2.3 21:20:44 10° SSW 21:26:23 80° WNW 21:32:04 10° NNE visible
08 Aug 5.0 23:07:55 10° W 23:11:23 16° NW 23:14:52 10° N visible
